Volver al catálogo

NIMBUS 2 DEB

ActivoLEO
NORAD 31579·DEBRIS·🇺🇸 United States

Lanzado May 15, 1966 desde Vandenberg Space Force Base

Loading…

Próximos Pases (próximas 24 horas)

TLE

ActualizadoSource: Space-Track

Época: Sep 14, 2026, 05:33 UTC

1 31579U 66040AR  26257.23176733  .00001187  00000-0  19028-2 0  9994
2 31579 100.5024 242.9432 0043177 296.8247  77.3216 13.50988866948387

Sigue NIMBUS 2 DEB en tiempo real con AllMySat

Download on the App Store